Regional Weather Roundup
Issued by NWS Green Bay, WI

Home | Current Version | Previous Version | Text Only | Print | Product List | Glossary On
Versions: 1 2 3 4 5 6 7 8 9 10 11 12 13 14 15 16 17 18 19 20 21 22 23 24 25 26 27 28 29 30 31 32 33 34 35 36 37 38 39 40 41 42 43 44 45 46 47 48 49 50
000
ASUS43 KGRB 280011
RWRGRB

NORTH-CENTRAL AND NORTHEAST WISCONSIN REGIONAL WEATHER ROUNDUP
NATIONAL WEATHER SERVICE GREEN BAY WI
700 PM CDT TUE JUN 27 2017

WIZ005-009-010>012-018-019-280100-
NORTH CENTRAL WISCONSIN

CITY           SKY/WX    TMP DP  RH WIND       PRES   REMARKS
IRONWOOD       SUNNY     72  47  40 S9G18     29.89F
MANITOWISH WTR SUNNY     69  47  44 SW7       29.91F
ARBOR VITAE    SUNNY     72  48  42 SW12      29.92F
EAGLE RIVER    SUNNY     69  43  38 SW9       29.93S
LAND O LAKES   SUNNY     71  42  36 SW8G17    29.94S
RHINELANDER    SUNNY     69  48  47 SW12G20   29.94F
PHILLIPS       SUNNY     68  48  48 S9        29.91F
ANTIGO         MOSUNNY   68  49  51 SW9       29.96F
TOMAHAWK       NOT AVBL
MERRILL        SUNNY     69  47  45 SW9       29.95F
$$

WIZ013-073-280100-
NORTHEAST WISCONSIN

CITY           SKY/WX    TMP DP  RH WIND       PRES   REMARKS
IRON MOUNTAIN  SUNNY     72  46  39 SW8       29.91F
MARINETTE      SUNNY     73  49  42 SW7       29.94S
OCONTO         MOSUNNY   73  48  40 SW7       29.94S
$$

WIZ017-030-035>037-045-280100-
CENTRAL WISCONSIN

CITY           SKY/WX    TMP DP  RH WIND       PRES   REMARKS
MEDFORD        CLOUDY    69  46  44 SW12      29.94F
WAUSAU           N/A    N/A N/A N/A MISG      29.93F
MOSINEE        PTSUNNY   68  48  49 S9        29.96F
MARSHFIELD     CLOUDY    70  46  42 SW10      29.94F
WISC RAPIDS    SUNNY     72  48  42 SW9       29.97F
STEVENS POINT  SUNNY     69  45  42 SW8       29.96F
WAUPACA        SUNNY     74  45  35 S7        29.96F
SHAWANO        NOT AVBL
CLINTONVILLE   MOSUNNY   72  43  35 SW9       29.95F
WAUTOMA        SUNNY     72  48  42 SW7       29.97F
$$

WIZ038-039-048-051-280100-
FOX VALLEY

CITY           SKY/WX    TMP DP  RH WIND       PRES   REMARKS
NWS GREEN BAY  SUNNY     73  50  44 SW10      29.96F
APPLETON       MOSUNNY   72  43  35 SW12      29.96F
OSHKOSH        SUNNY     72  47  40 SW9       29.97F
FOND DU LAC    MOSUNNY   73  44  35 SW12      29.98F
$$

WIZ022-050-052-280100-
EAST CENTRAL WISCONSIN

CITY           SKY/WX    TMP DP  RH WIND       PRES   REMARKS
EPHRAIM        FAIR      65  53  65 S6        29.95S
WASHINGTON ISL NOT AVBL
STURGEON BAY     N/A     70  55  59 SE7       29.96S
MANITOWOC      SUNNY     73  46  38 W8        29.98S
SHEBOYGAN      SUNNY     72  49  44 W9        29.99S
$$

LMZ563-521-522-541>543-280100-
LAKESHORE

STATION/POSITION TIME  TEMP    WIND        PRES    VSBY  WAVE
                       AIR SEA DIR/SP/G                  HT/PER
                 (UTC) (F)     (DEG/KT/KT) (MB)    (MI)  (FT/S)
SHEBOYGAN LKSHOR 0000   62     180/ 18/ 19 1015.2F
KEWAUNEE LKSHORE 2342   57     170/ 10/ 12 1014.2F
ALGOMA MARINA    0002   63     210/  7/  9   N/A
NORTHPORT PIER   2340   65     160/ 10/ 14 1014.2F
N MID LAKE BUOY  2350   58 55  190/ 10/ 12 1015.6R         1/ 3
S GREEN BAY BUOY 0000   70     220/ 10/ 12 1013.7
SISTER BAY LKSHO 2323   68     160/ 11/ 15   N/A
CHAMBERS ISLAND  2340   68     130/  6/ 12 1013.5S
MENOMINEE LKSHOR 2336          170/  8/ 11 1012.9F
$$




USA.gov is the U.S. government's official web portal to all federal, state and local government web resources and services.